This demonstration page uses our WeatherBlox Daily Observations layout. Learn more.

Left ArrowRight Arrow

40.92945, -100.16068

Hourly Observations for June 13, 2020

Temp ( °F °C ) Dew Point ( °F °C ) Humidity (%) Winds ( mph kmh ) Pressure ( in mb ) Visibility ( mi km ) Precip ( " mm )
12:15 am 00:15 Clear 64 17.7 56 13.2 75 75 SSE 7 11 30.11 1020 10 16.0934 0 0
12:35 am 00:35 Clear 64 17.6 56 13.2 76 76 SSE 5 7 30.11 1020 10 16.0934 0 0
12:55 am 00:55 Clear 62 16.9 55 13 78 78 SSE 6 9 30.11 1020 10 16.0934 0 0
1:15 am 01:15 Clear 62 16.7 55 13 79 79 SE 6 9 30.11 1020 10 16.0934 0 0
1:35 am 01:35 Clear 63 17.1 56 13.1 77 77 SE 5 7 30.11 1020 10 16.0934 0 0
1:55 am 01:55 Clear 61 16.1 55 12.8 81 81 SE 5 7 30.11 1019 10 16.0934 0 0
2:15 am 02:15 Clear 62 16.4 55 12.6 78 78 ESE 3 6 30.09 1019 10 16.0934 0 0
2:35 am 02:35 Clear 56 13.5 54 12.1 91 91 ENE 3 6 30.12 1020 10 16.0934 0 0
2:55 am 02:55 Clear 56 13.5 54 12 91 91 Calm 30.12 1020 10 16.0934 0 0
3:15 am 03:15 Clear 56 13.2 53 11.8 91 91 E 5 7 30.11 1020 10 16.0934 0 0
3:35 am 03:35 Clear 56 13.5 54 12.3 93 93 E 5 7 30.11 1020 10 16.0934 0 0
3:55 am 03:55 Clear 56 13.5 53 11.9 90 90 E 5 7 30.11 1020 10 16.0934 0 0
4:15 am 04:15 Clear 56 13.5 54 12.1 91 91 E 5 7 30.1 1019 10 16.0934 0 0
4:35 am 04:35 Clear 56 13.2 54 12.1 93 93 ENE 7 11 30.09 1019 10 16.0934 0 0
4:55 am 04:55 Clear 56 13.6 55 12.5 93 93 Calm 30.09 1019 10 16.0934 0 0
5:15 am 05:15 Clear 58 14.3 55 12.5 89 89 E 5 7 30.07 1018 10 16.0934 0 0
5:35 am 05:35 Clear 57 13.8 54 12.1 90 90 E 3 6 30.08 1019 10 16.0934 0 0
5:55 am 05:55 Clear 55 13 53 11.8 92 92 E 7 11 30.08 1019 10 16.0934 0 0
6:15 am 06:15 Sunny 56 13.5 54 12.4 93 93 E 6 9 30.08 1019 10 16.0934 0 0
6:35 am 06:35 Sunny 60 15.5 57 13.8 90 90 E 6 9 30.06 1018 10 16.0934 0 0
6:55 am 06:55 Sunny 61 16.1 58 14.2 89 89 E 6 9 30.06 1018 10 16.0934 0 0
7:15 am 07:15 Sunny 62 16.9 58 14.6 86 86 E 5 7 30.04 1017 10 16.0934 0 0
7:35 am 07:35 Sunny 64 17.7 59 15 84 84 ESE 6 9 30.04 1017 10 16.0934 0 0
7:55 am 07:55 Sunny 65 18.4 60 15.5 83 83 ESE 8 13 30.03 1017 10 16.0934 0 0
8:15 am 08:15 Sunny 67 19.3 60 15.6 79 79 ESE 9 15 30.02 1017 10 16.0934 0 0
8:35 am 08:35 Sunny 68 20.1 61 16 77 77 ESE 8 13 30.01 1016 10 16.0934 0 0
8:55 am 08:55 Sunny 70 21 61 15.9 73 73 ESE 8 13 29.98 1015 10 16.0934 0 0
9:15 am 09:15 Sunny 71 21.9 61 15.9 69 69 ESE 8 13 29.98 1015 10 16.0934 0 0
9:35 am 09:35 Sunny 73 22.8 60 15.6 64 64 ESE 10 17 29.97 1015 10 16.0934 0 0
9:55 am 09:55 Sunny 74 23.5 60 15.5 61 61 SE 10 17 29.96 1015 10 16.0934 0 0
10:15 am 10:15 Sunny 76 24.2 61 16 60 60 ESE 10 17 29.95 1014 10 16.0934 0 0
10:35 am 10:35 Sunny 77 25.1 58 14.6 52 52 SE 12 19 29.93 1014 10 16.0934 0 0
10:55 am 10:55 Sunny 78 25.5 59 15 52 52 E 14 22 29.91 1013 10 16.0934 0 0
11:15 am 11:15 Sunny 79 26.2 61 15.9 53 53 ESE 8 13 29.9 1013 10 16.0934 0 0
11:35 am 11:35 Sunny 80 26.6 58 14.2 47 47 SE 10 17 29.9 1012 10 16.0934 0 0
11:55 am 11:55 Sunny 81 27.4 59 15.1 47 47 ESE 13 20 29.89 1012 10 16.0934 0 0
12:15 pm 12:15 Sunny 81 27.4 58 14.7 46 46 SE 14 22 29.89 1012 10 16.0934 0 0
12:35 pm 12:35 Sunny 82 27.5 59 14.8 46 46 ESE 14 22 29.88 1012 10 16.0934 0 0
12:55 pm 12:55 Sunny 83 28.1 57 13.9 42 42 ESE 13 20 29.87 1012 10 16.0934 0 0
1:15 pm 13:15 Sunny 83 28.3 58 14.6 43 43 ESE 17 28 29.86 1011 10 16.0934 0 0
1:35 pm 13:35 Sunny 83 28.6 59 15 44 44 ESE 15 24 29.85 1011 10 16.0934 0 0
1:55 pm 13:55 Sunny 84 29.1 59 14.9 42 42 SE 14 22 29.84 1010 10 16.0934 0 0
2:15 pm 14:15 Sunny 85 29.7 59 14.8 40 40 SE 12 19 29.83 1010 10 16.0934 0 0
2:35 pm 14:35 Sunny 85 29.6 59 14.8 41 41 ESE 14 22 29.82 1010 10 16.0934 0 0
2:55 pm 14:55 Sunny 86 30 57 14.1 38 38 SE 13 20 29.81 1009 10 16.0934 0 0
3:15 pm 15:15 Sunny 87 30.5 59 15 39 39 SE 15 24 29.8 1009 10 16.0934 0 0
3:35 pm 15:35 Sunny 87 30.6 58 14.4 37 37 SE 16 26 29.79 1009 10 16.0934 0 0
3:55 pm 15:55 Sunny 88 31 57 14.1 36 36 SE 16 26 29.78 1009 10 16.0934 0 0
4:15 pm 16:15 Sunny 89 31.4 58 14.2 35 35 SE 14 22 29.77 1008 10 16.0934 0 0
4:35 pm 16:35 Sunny 88 31.3 55 13 33 33 SE 16 26 29.77 1008 10 16.0934 0 0
4:55 pm 16:55 Sunny 89 31.4 57 13.8 34 34 SE 17 28 29.76 1008 10 16.0934 0 0
5:15 pm 17:15 Sunny 89 31.5 56 13.4 33 33 SSE 14 22 29.75 1007 10 16.0934 0 0
5:35 pm 17:35 Sunny 89 31.4 55 12.9 32 32 SE 14 22 29.74 1007 10 16.0934 0 0
5:55 pm 17:55 Sunny 88 31.3 56 13.6 34 34 SE 14 22 29.73 1007 10 16.0934 0 0
6:15 pm 18:15 Sunny 88 31.3 56 13.3 33 33 SSE 14 22 29.72 1006 10 16.0934 0 0
6:35 pm 18:35 Sunny 88 31.1 58 14.2 36 36 SE 13 20 29.71 1006 10 16.0934 0 0
6:55 pm 18:55 Sunny 88 31.1 55 12.7 32 32 SE 15 24 29.71 1006 10 16.0934 0 0
7:15 pm 19:15 Sunny 87 30.7 57 13.8 36 36 SE 10 17 29.7 1006 10 16.0934 0 0
7:35 pm 19:35 Sunny 86 29.8 59 15 41 41 ESE 8 13 29.71 1006 10 16.0934 0 0
7:55 pm 19:55 Sunny 85 29.2 59 15.1 42 42 ESE 10 17 29.72 1006 10 16.0934 0 0
8:15 pm 20:15 Sunny 83 28.5 58 14.7 43 43 ESE 10 17 29.72 1006 10 16.0934 0 0
8:35 pm 20:35 Sunny 82 27.7 58 14.7 45 45 ESE 10 17 29.73 1007 10 16.0934 0 0
8:55 pm 20:55 Sunny 81 27.1 59 15 48 48 ESE 10 17 29.73 1007 10 16.0934 0 0
9:15 pm 21:15 Clear 80 26.7 58 14.4 47 47 ESE 12 19 29.73 1007 10 16.0934 0 0
9:35 pm 21:35 Clear 79 26.1 58 14.4 49 49 ESE 12 19 29.73 1007 10 16.0934 0 0
9:55 pm 21:55 Clear 78 25.5 57 14 49 49 ESE 13 20 29.75 1007 10 16.0934 0 0
10:15 pm 22:15 Clear 78 25.4 57 13.7 48 48 ESE 14 22 29.76 1008 10 16.0934 0 0
10:35 pm 22:35 Clear 77 24.9 56 13.6 50 50 SE 14 22 29.76 1008 10 16.0934 0 0
10:55 pm 22:55 Clear 76 24.2 56 13.3 51 51 SE 14 22 29.78 1008 10 16.0934 0 0
11:15 pm 23:15 Clear 74 23.3 56 13.4 54 54 SE 12 19 29.78 1009 10 16.0934 0 0
11:35 pm 23:35 Clear 73 22.6 56 13.3 56 56 SE 10 17 29.79 1009 10 16.0934 0 0
11:55 pm 23:55 Clear 72 22.1 55 13 56 56 SE 10 17 29.79 1009 10 16.0934 0 0

Powered by AerisWeather